TK981 LTDB-LTAC

Flight info

Callsign TK981
Flight time 0h 50m
Altitude 43000
Route KEMER UW75 BAKIR
Aircraft C700/M-SBDGHM1RWXY/LB2

Departure

Time 2026-05-07 09:31
Airport Çukurova International Airport (LTDB)

Arrival

Time 2026-05-07 10:21
Airport Esenboğa International Airport (LTAC)
Time Latitude Longitude Altitude Speed Heading
2026-05-07 09:26 36.90629 35.07476 38 ft 0 kts 201°
2026-05-07 09:27 36.90593 35.07455 38 ft 11 kts 207°
2026-05-07 09:27 36.90444 35.07601 38 ft 21 kts 116°
2026-05-07 09:28 36.90388 35.07707 39 ft 11 kts 124°
2026-05-07 09:28 36.90306 35.07729 39 ft 11 kts 207°
2026-05-07 09:28 36.90303 35.07727 40 ft 0 kts 206°
2026-05-07 09:29 36.90277 35.07711 40 ft 11 kts 206°
2026-05-07 09:29 36.90172 35.07638 40 ft 23 kts 210°
2026-05-07 09:30 36.89983 35.07582 40 ft 33 kts 180°
2026-05-07 09:30 36.89719 35.07548 35 ft 43 kts 200°
2026-05-07 09:30 36.89369 35.07305 36 ft 90 kts 208°
2026-05-07 09:30 36.88618 35.06704 166 ft 155 kts 214°
2026-05-07 09:31 36.87607 35.05851 547 ft 207 kts 215°
2026-05-07 09:31 36.86217 35.04707 957 ft 267 kts 212°
2026-05-07 09:31 36.84729 35.03035 1523 ft 298 kts 231°
2026-05-07 09:31 36.83724 35.00856 2054 ft 295 kts 247°
2026-05-07 09:32 36.83391 34.96252 3020 ft 268 kts 279°
2026-05-07 09:32 36.83981 34.94084 3447 ft 261 kts 296°
2026-05-07 09:32 36.84921 34.92131 3837 ft 263 kts 302°
2026-05-07 09:33 36.85940 34.90252 4235 ft 266 kts 311°
2026-05-07 09:33 36.87359 34.88768 4653 ft 267 kts 329°
2026-05-07 09:33 36.89331 34.87756 5124 ft 266 kts 347°
2026-05-07 09:33 36.91170 34.87363 5535 ft 267 kts 351°
2026-05-07 09:34 36.92387 34.87106 5834 ft 267 kts 351°
2026-05-07 09:34 36.94813 34.86587 6408 ft 268 kts 351°
2026-05-07 09:34 36.96057 34.86321 6697 ft 268 kts 351°
2026-05-07 09:34 36.97877 34.85934 7124 ft 269 kts 350°
2026-05-07 09:35 36.99731 34.85540 7569 ft 271 kts 351°
2026-05-07 09:35 37.01595 34.85143 8005 ft 273 kts 350°
2026-05-07 09:35 37.03476 34.84741 8464 ft 274 kts 350°
2026-05-07 09:35 37.05358 34.84340 8924 ft 275 kts 350°
2026-05-07 09:36 37.07243 34.83938 9392 ft 275 kts 350°
2026-05-07 09:36 37.09155 34.83530 9867 ft 281 kts 350°
2026-05-07 09:36 37.11093 34.83118 10327 ft 284 kts 350°
2026-05-07 09:36 37.13119 34.82684 10806 ft 304 kts 350°
2026-05-07 09:37 37.15205 34.82236 11333 ft 308 kts 350°
2026-05-07 09:37 37.17324 34.81784 11878 ft 309 kts 350°
2026-05-07 09:37 37.19459 34.81328 12436 ft 311 kts 350°
2026-05-07 09:37 37.21604 34.80869 13021 ft 313 kts 350°
2026-05-07 09:38 37.23761 34.80406 13604 ft 315 kts 350°
2026-05-07 09:38 37.25911 34.79945 14160 ft 318 kts 350°
2026-05-07 09:38 37.28111 34.79473 14710 ft 319 kts 349°
2026-05-07 09:38 37.30284 34.79006 15240 ft 321 kts 349°
2026-05-07 09:39 37.32495 34.78531 15805 ft 323 kts 349°
2026-05-07 09:39 37.34773 34.78041 16148 ft 348 kts 349°
2026-05-07 09:39 37.37282 34.77498 16160 ft 378 kts 349°
2026-05-07 09:39 37.39897 34.76937 16155 ft 389 kts 349°
2026-05-07 09:40 37.42575 34.76366 16151 ft 388 kts 349°
2026-05-07 09:40 37.45233 34.75792 16156 ft 387 kts 349°
2026-05-07 09:40 37.47881 34.75219 16160 ft 386 kts 349°
2026-05-07 09:40 37.50539 34.74646 16162 ft 387 kts 349°
2026-05-07 09:41 37.53204 34.74071 16166 ft 388 kts 349°
2026-05-07 09:41 37.55833 34.73502 16185 ft 386 kts 349°
2026-05-07 09:41 37.58388 34.72902 16563 ft 359 kts 346°
2026-05-07 09:41 37.60676 34.71930 16947 ft 334 kts 336°
2026-05-07 09:42 37.62688 34.70616 17351 ft 319 kts 328°
2026-05-07 09:42 37.64580 34.69168 17764 ft 325 kts 328°
2026-05-07 09:42 37.66534 34.67700 18257 ft 327 kts 328°
2026-05-07 09:42 37.68490 34.66226 18771 ft 329 kts 328°
2026-05-07 09:43 37.70495 34.64701 19272 ft 342 kts 328°
2026-05-07 09:43 37.72561 34.63129 19790 ft 348 kts 328°
2026-05-07 09:43 37.74641 34.61552 20305 ft 347 kts 328°
2026-05-07 09:43 37.76684 34.60003 20814 ft 346 kts 328°
2026-05-07 09:44 37.78759 34.58425 21349 ft 348 kts 328°
2026-05-07 09:44 37.80828 34.56850 21884 ft 351 kts 328°
2026-05-07 09:44 37.82927 34.55252 22438 ft 353 kts 328°
2026-05-07 09:44 37.85044 34.53640 23000 ft 355 kts 328°
2026-05-07 09:45 37.87167 34.52022 23583 ft 356 kts 328°
2026-05-07 09:45 37.89290 34.50402 24079 ft 357 kts 328°
2026-05-07 09:45 37.91428 34.48777 24575 ft 360 kts 328°
2026-05-07 09:45 37.93573 34.47183 25056 ft 363 kts 329°
2026-05-07 09:46 37.95754 34.45566 25577 ft 359 kts 329°
2026-05-07 09:46 37.97894 34.43963 26113 ft 355 kts 328°
2026-05-07 09:46 37.99991 34.42385 26621 ft 354 kts 329°
2026-05-07 09:46 38.02126 34.40785 27121 ft 357 kts 329°
2026-05-07 09:47 38.04284 34.39168 27635 ft 361 kts 329°
2026-05-07 09:47 38.06468 34.37529 28164 ft 365 kts 329°
2026-05-07 09:47 38.08639 34.35898 28695 ft 368 kts 328°
2026-05-07 09:47 38.10852 34.34234 29254 ft 371 kts 328°
2026-05-07 09:48 38.13089 34.32551 29842 ft 374 kts 328°
2026-05-07 09:48 38.15347 34.30852 30423 ft 378 kts 328°
2026-05-07 09:48 38.17597 34.29156 30926 ft 382 kts 328°
2026-05-07 09:48 38.19896 34.27424 31458 ft 385 kts 328°
2026-05-07 09:49 38.22207 34.25680 31994 ft 387 kts 328°
2026-05-07 09:49 38.24539 34.23919 32562 ft 390 kts 328°
2026-05-07 09:49 38.26882 34.22149 33122 ft 393 kts 328°
2026-05-07 09:49 38.29223 34.20378 33681 ft 396 kts 328°
2026-05-07 09:50 38.31597 34.18582 34257 ft 397 kts 328°
2026-05-07 09:50 38.33969 34.16786 34751 ft 395 kts 328°
2026-05-07 09:50 38.36323 34.15003 35218 ft 394 kts 328°
2026-05-07 09:50 38.38688 34.13208 35694 ft 396 kts 328°
2026-05-07 09:51 38.41067 34.11401 36172 ft 399 kts 327°
2026-05-07 09:51 38.43459 34.09585 36649 ft 401 kts 327°
2026-05-07 09:51 38.45871 34.07751 37126 ft 403 kts 327°
2026-05-07 09:51 38.48259 34.05934 37601 ft 405 kts 327°
2026-05-07 09:52 38.50689 34.04084 38093 ft 407 kts 327°
2026-05-07 09:52 38.53136 34.02219 38570 ft 409 kts 327°
2026-05-07 09:52 38.55584 34.00337 39011 ft 411 kts 326°
2026-05-07 09:52 38.58010 33.98462 39372 ft 412 kts 326°
2026-05-07 09:53 38.60492 33.96547 39386 ft 423 kts 326°
2026-05-07 09:53 38.65666 33.92563 39397 ft 443 kts 327°
2026-05-07 09:54 38.71031 33.88417 39396 ft 458 kts 327°
2026-05-07 09:54 38.76480 33.84205 39406 ft 455 kts 327°
2026-05-07 09:55 38.81880 33.80015 39386 ft 451 kts 327°
2026-05-07 09:55 38.87222 33.75867 39387 ft 451 kts 327°
2026-05-07 09:56 38.92615 33.71671 39384 ft 453 kts 327°
2026-05-07 09:56 38.98022 33.67458 39378 ft 455 kts 327°
2026-05-07 09:57 39.03426 33.63238 39392 ft 452 kts 327°
2026-05-07 09:57 39.08757 33.59067 39390 ft 450 kts 327°
2026-05-07 09:58 39.14125 33.54860 39225 ft 452 kts 327°
2026-05-07 09:58 39.16820 33.52745 38599 ft 450 kts 327°
2026-05-07 09:58 39.19461 33.50672 38003 ft 438 kts 327°
2026-05-07 09:58 39.21993 33.48684 37440 ft 425 kts 327°
2026-05-07 09:59 39.24490 33.46737 36881 ft 414 kts 328°
2026-05-07 09:59 39.26954 33.44861 36340 ft 406 kts 328°
2026-05-07 09:59 39.29379 33.43017 35807 ft 404 kts 329°
2026-05-07 09:59 39.31800 33.41148 35274 ft 407 kts 329°
2026-05-07 10:00 39.34251 33.39251 34736 ft 412 kts 329°
2026-05-07 10:00 39.36732 33.37341 34181 ft 415 kts 329°
2026-05-07 10:00 39.39249 33.35486 33907 ft 416 kts 331°
2026-05-07 10:00 39.41737 33.33444 33905 ft 430 kts 324°
2026-05-07 10:01 39.44037 33.30960 33584 ft 443 kts 317°
2026-05-07 10:01 39.46098 33.28005 32895 ft 437 kts 310°
2026-05-07 10:01 39.47834 33.24832 32219 ft 426 kts 306°
2026-05-07 10:01 39.49493 33.21685 31559 ft 418 kts 307°
2026-05-07 10:02 39.51127 33.18633 30922 ft 418 kts 307°
2026-05-07 10:02 39.52984 33.15677 30243 ft 426 kts 314°
2026-05-07 10:02 39.55164 33.13036 29552 ft 430 kts 321°
2026-05-07 10:02 39.57577 33.10811 28882 ft 400 kts 328°
2026-05-07 10:03 39.59899 33.09200 28293 ft 376 kts 335°
2026-05-07 10:03 39.62287 33.07980 27719 ft 366 kts 341°
2026-05-07 10:03 39.64708 33.07143 27154 ft 353 kts 347°
2026-05-07 10:03 39.67097 33.06676 26616 ft 341 kts 353°
2026-05-07 10:04 39.69432 33.06547 26089 ft 331 kts 358°
2026-05-07 10:04 39.71704 33.06729 25583 ft 323 kts
2026-05-07 10:04 39.73905 33.07201 25081 ft 317 kts
2026-05-07 10:04 39.76001 33.07930 24503 ft 314 kts 14°
2026-05-07 10:05 39.78072 33.08948 23707 ft 320 kts 20°
2026-05-07 10:05 39.80087 33.10246 22780 ft 324 kts 24°
2026-05-07 10:05 39.82086 33.11634 21887 ft 325 kts 24°
2026-05-07 10:05 39.84072 33.12989 21027 ft 326 kts 25°
2026-05-07 10:06 39.86079 33.14360 20188 ft 326 kts 25°
2026-05-07 10:06 39.88090 33.15745 19366 ft 327 kts 26°
2026-05-07 10:06 39.90104 33.17133 18571 ft 327 kts 26°
2026-05-07 10:06 39.92240 33.18118 17661 ft 326 kts
2026-05-07 10:07 39.94503 33.18166 16769 ft 326 kts 352°
2026-05-07 10:07 39.96658 33.17299 15918 ft 324 kts 334°
2026-05-07 10:07 39.98475 33.15635 15105 ft 323 kts 316°
2026-05-07 10:07 40.00004 33.13502 14335 ft 319 kts 314°
2026-05-07 10:08 40.01748 33.11738 13500 ft 318 kts 332°
2026-05-07 10:08 40.03835 33.10791 12662 ft 317 kts 349°
2026-05-07 10:08 40.05999 33.10751 12196 ft 306 kts
2026-05-07 10:08 40.07964 33.11469 12173 ft 281 kts 24°
2026-05-07 10:09 40.09568 33.12743 12173 ft 261 kts 36°
2026-05-07 10:09 40.11048 33.14146 12180 ft 269 kts 35°
2026-05-07 10:09 40.12459 33.15482 12468 ft 219 kts 36°
2026-05-07 10:09 40.13697 33.16669 12282 ft 220 kts 36°
2026-05-07 10:10 40.14891 33.17815 12173 ft 201 kts 36°
2026-05-07 10:10 40.15975 33.18852 12169 ft 186 kts 36°
2026-05-07 10:10 40.17011 33.19844 12176 ft 185 kts 35°
2026-05-07 10:10 40.18056 33.20845 12182 ft 192 kts 36°
2026-05-07 10:11 40.19200 33.21941 12187 ft 216 kts 36°
2026-05-07 10:11 40.20482 33.23170 12246 ft 234 kts 36°
2026-05-07 10:11 40.21766 33.24404 12205 ft 223 kts 36°
2026-05-07 10:11 40.22970 33.25560 12174 ft 205 kts 36°
2026-05-07 10:12 40.24093 33.26639 11996 ft 198 kts 36°
2026-05-07 10:12 40.25199 33.27700 11708 ft 196 kts 36°
2026-05-07 10:12 40.26282 33.28741 11404 ft 194 kts 36°
2026-05-07 10:12 40.27367 33.29784 11105 ft 191 kts 36°
2026-05-07 10:13 40.28437 33.30814 10804 ft 190 kts 36°
2026-05-07 10:13 40.29515 33.31768 10501 ft 188 kts 24°
2026-05-07 10:13 40.30790 33.31935 10223 ft 185 kts 349°
2026-05-07 10:13 40.31930 33.31194 9922 ft 184 kts 316°
2026-05-07 10:14 40.32595 33.29798 9635 ft 181 kts 285°
2026-05-07 10:14 40.32614 33.28179 9353 ft 179 kts 255°
2026-05-07 10:14 40.32001 33.26807 9083 ft 178 kts 224°
2026-05-07 10:14 40.31022 33.25834 8811 ft 175 kts 229°
2026-05-07 10:15 40.30638 33.24363 8573 ft 173 kts 263°
2026-05-07 10:15 40.30405 33.22796 8305 ft 176 kts 250°
2026-05-07 10:15 40.29879 33.21365 8034 ft 176 kts 241°
2026-05-07 10:15 40.29290 33.19970 7761 ft 173 kts 241°
2026-05-07 10:16 40.28710 33.18588 7487 ft 172 kts 241°
2026-05-07 10:16 40.28136 33.17219 7204 ft 171 kts 241°
2026-05-07 10:16 40.27565 33.15862 6868 ft 173 kts 240°
2026-05-07 10:16 40.26986 33.14481 6501 ft 171 kts 240°
2026-05-07 10:17 40.26406 33.13123 6163 ft 166 kts 237°
2026-05-07 10:17 40.25623 33.12064 5970 ft 162 kts 218°
2026-05-07 10:17 40.24734 33.11143 5765 ft 168 kts 218°
2026-05-07 10:17 40.23856 33.10271 5586 ft 144 kts 218°
2026-05-07 10:18 40.23057 33.09497 5353 ft 143 kts 217°
2026-05-07 10:18 40.22249 33.08724 5176 ft 145 kts 217°
2026-05-07 10:18 40.21448 33.07956 4984 ft 143 kts 217°
2026-05-07 10:18 40.20659 33.07198 4779 ft 139 kts 217°
2026-05-07 10:19 40.19858 33.06431 4581 ft 144 kts 217°
2026-05-07 10:19 40.19050 33.05653 4369 ft 144 kts 218°
2026-05-07 10:19 40.18243 33.04873 4161 ft 144 kts 218°
2026-05-07 10:19 40.17445 33.04110 3956 ft 141 kts 219°
2026-05-07 10:20 40.16644 33.03340 3781 ft 143 kts 219°
2026-05-07 10:20 40.15856 33.02583 3602 ft 140 kts 218°
2026-05-07 10:20 40.15085 33.01868 3438 ft 133 kts 217°
2026-05-07 10:20 40.14588 33.01388 3269 ft 134 kts 219°
2026-05-07 10:21 40.13643 33.00466 3132 ft 114 kts 217°
2026-05-07 10:21 40.13152 32.99980 3121 ft 68 kts 216°
2026-05-07 10:21 40.12828 32.99672 3117 ft 48 kts 216°
2026-05-07 10:21 40.12596 32.99462 3115 ft 37 kts 214°
2026-05-07 10:22 40.12467 32.99339 3114 ft 33 kts 217°
2026-05-07 10:22 40.12276 32.99218 3112 ft 29 kts 190°
2026-05-07 10:22 40.12076 32.99186 3110 ft 29 kts 186°
2026-05-07 10:22 40.11930 32.99123 3108 ft 18 kts 216°
2026-05-07 10:23 40.11829 32.99043 3108 ft 14 kts 191°
2026-05-07 10:23 40.11775 32.99105 3107 ft 13 kts 103°
2026-05-07 10:23 40.11811 32.99224 3107 ft 12 kts 60°
2026-05-07 10:23 40.11874 32.99236 3107 ft 10 kts 341°